Вернуться в каталог

STARLINK-30889

АктивенСвязьVLEO
NORAD 58368·PAYLOAD·🇺🇸 United States

Запущен Nov 18, 2023 с Cape Canaveral Space Force Station

Loading…

Ближайшие Пролёты (ближайшие 24 часа)

TLE

СвежийSource: CelesTrak SupGP

Эпоха: Sep 15, 2026, 02:49 UTC

1 58368C 23177T   26258.11784722  .00030079  00000+0  10894-2 0  2585
2 58368  43.0016   0.9955 0001589 263.2496 177.3052 15.27565645    11

Отслеживайте STARLINK-30889 в реальном времени с AllMySat

Download on the App Store